Location: Franzen
(48.6167°N, 15.3833°E)
Time: 06:31:22
(UTC+00:00)

Altair - Pass Details

Date: 07 August 2021
Orbit: 1501 x 1682 km, 47.2° (Epoch: 21 September)

Event Time Altitude Azimuth Distance (km) Brightness Sun altitude
Exits shadow 01:32:20 - 262° (W) 3,999 9.3 -17.1°
Reaches altitude 10° 01:33:08 10° 262° (W) 3,741 9.1 -17.1°
Maximum altitude 01:42:34 83° 177° (S) 1,534 7.4 -16.1°
Drops below altitude 10° 01:51:46 10° 91° (E) 3,655 10.1 -15.1°
Sets 01:54:46 0° 91° (E) 4,634 10.7 -14.8°
